map of EDL home
EDL - Airport
Location
City:  Eldoret, Kenya
Name:Eldoret International Airport
ICAO:HKEL
IATA:EDL

Details
Type:Airport (Aerodrome, Airfield)
Use:International (customs port of entry)
Latitude:024'16"N (0.404458)
Longitude:3514'20"E (35.238928)
Datum:WGS 1984
Elevation:6941 ft (2116 m)
Variation:1.27E (WMM2015 magnetic declination)
0.05 annual change
Runways:1
Longest:11483 × 148 ft (3500 × 45 m), paved

Time
Time Zone:UTC+3
Local Time:

Weather
METAR:HKEL 290630Z 35008KT 9999 FEW016 FEW018CB BKN090 16/12 Q1028
TAF:HKEL 290500Z 2906/3006 32010KT 9999 FEW023CB BKN024
TEMPO 2912/2918 VRB10KT -TS FEW018CB SCT080
BECMG 2920/2923 11005KT CAVOK

Related Locations
Nearby:
Farthest:NHV: 11779 mi / 18956 km
Nuku Hiva, Marquesas Islands, PF

Find:

   beyond  
but within

Other Information
Maps:
NOTAMs:
Links:
Sources:

  
flag of Kenya   

Sectional Chart

Flight Planning
at skyvector.com

Satellite Image

Google Maps Satellite view

 

Copyright © 2004-2017 Karl L. Swartz. All rights reserved.
The Great Circle Mapper name and logo are trademarks of the Great Circle Mapper.
All other trademarks mentioned herein belong to their respective owners.
Please see credits for attibutions and further copyright information.

  Follow gcmap on Facebook Follow gcmap on Twitter Follow gcmap on Google+ GCmap on LinkedIn

hCard Microformat

Geo Microformat